Time,TemperatureF,DewpointF,PressureIn,WindDirection,WindDirectionDegrees,WindSpeedMPH,WindSpeedGustMPH,Humidity,HourlyPrecipIn,Conditions,Clouds,dailyrainin,SoftwareType,DateUTC
2013-02-02 00:15:00,19.9,17.0,30.18,SSW,210,9.0,10.0,88,0.03,-SN,-SN,0.03,WeatherDisplay:10.37,2013-02-02 06:15:00,
2013-02-02 00:45:00,19.9,17.0,30.18,SSW,210,9.0,9.0,88,0.00,-SN,-SN,0.03,WeatherDisplay:10.37,2013-02-02 06:45:00,
2013-02-02 01:15:00,21.0,17.8,30.15,SSW,200,8.0,9.0,87,0.03,-SN,-SN,0.06,WeatherDisplay:10.37,2013-02-02 07:15:00,
2013-02-02 01:45:00,21.0,17.8,30.14,SSW,200,12.0,12.0,87,0.00,-SN,-SN,0.06,WeatherDisplay:10.37,2013-02-02 07:45:00,
2013-02-02 02:15:00,21.9,18.9,30.12,SSW,200,12.0,12.0,88,0.02,OVC,OVC,0.08,WeatherDisplay:10.37,2013-02-02 08:15:00,
2013-02-02 02:45:00,21.9,18.9,30.12,SSW,200,12.0,12.0,88,0.00,OVC,OVC,0.08,WeatherDisplay:10.37,2013-02-02 08:45:00,
2013-02-02 03:15:00,21.9,18.9,30.09,SSW,200,10.0,12.0,88,0.02,OVC,OVC,0.10,WeatherDisplay:10.37,2013-02-02 09:15:00,
2013-02-02 03:45:00,21.9,18.9,30.09,SSW,200,10.0,10.0,88,0.00,OVC,OVC,0.10,WeatherDisplay:10.37,2013-02-02 09:45:00,
2013-02-02 04:15:00,23.0,17.7,30.06,SSW,210,10.0,10.0,80,0.00,OVC,OVC,0.10,WeatherDisplay:10.37,2013-02-02 10:15:00,
2013-02-02 04:45:00,23.0,17.7,30.06,SSW,210,10.0,10.0,80,0.00,OVC,OVC,0.10,WeatherDisplay:10.37,2013-02-02 10:45:00,
2013-02-02 05:15:00,24.1,17.9,30.04,SSW,210,10.0,10.0,77,0.00,OVC,OVC,0.10,WeatherDisplay:10.37,2013-02-02 11:15:00,
2013-02-02 05:45:00,24.1,17.9,30.04,SSW,210,10.0,10.0,77,0.00,OVC,OVC,0.10,WeatherDisplay:10.37,2013-02-02 11:45:00,
2013-02-02 06:15:00,24.1,18.8,30.04,SW,230,9.0,10.0,80,0.00,-SN,-SN,0.10,WeatherDisplay:10.37,2013-02-02 12:15:00,
2013-02-02 06:45:00,24.1,18.8,30.04,SW,230,9.0,9.0,80,0.00,-SN,-SN,0.10,WeatherDisplay:10.37,2013-02-02 12:45:00,
2013-02-02 07:15:00,25.0,20.8,30.04,WSW,240,9.0,9.0,84,0.00,-SN,-SN,0.10,WeatherDisplay:10.37,2013-02-02 13:15:00,
2013-02-02 07:45:00,25.0,21.7,30.04,WSW,240,7.0,8.0,87,0.00,-SN,-SN,0.10,WeatherDisplay:10.37,2013-02-02 13:45:00,
2013-02-02 08:15:00,25.0,21.7,30.04,WSW,250,7.0,7.0,87,0.00,OVC,OVC,0.10,WeatherDisplay:10.37,2013-02-02 14:15:00,
2013-02-02 08:45:00,25.0,21.7,30.04,WSW,250,7.0,7.0,87,0.00,OVC,OVC,0.10,WeatherDisplay:10.37,2013-02-02 14:45:00,
2013-02-02 09:15:00,27.0,21.9,30.04,West,270,8.0,8.0,81,0.00,OVC,OVC,0.10,WeatherDisplay:10.37,2013-02-02 15:15:00,
2013-02-02 09:45:00,27.0,21.9,30.04,West,270,8.0,8.0,81,0.00,OVC,OVC,0.10,WeatherDisplay:10.37,2013-02-02 15:45:00,
2013-02-02 10:15:00,28.0,21.8,30.04,WNW,290,10.0,10.0,77,0.00,OVC,OVC,0.10,WeatherDisplay:10.37,2013-02-02 16:15:00,
2013-02-02 10:45:00,28.0,21.8,30.04,WNW,290,10.0,10.0,77,0.00,OVC,OVC,0.10,WeatherDisplay:10.37,2013-02-02 16:45:00,
2013-02-02 11:15:00,28.0,20.8,30.05,WNW,300,10.0,10.0,74,0.00,OVC,OVC,0.10,WeatherDisplay:10.37,2013-02-02 17:15:00,
2013-02-02 11:45:00,28.0,20.8,30.05,WNW,300,10.0,10.0,74,0.00,OVC,OVC,0.10,WeatherDisplay:10.37,2013-02-02 17:45:00,
2013-02-02 12:15:00,25.0,18.8,30.06,NNW,340,10.0,20.0,77,0.00,OVC,OVC,0.10,WeatherDisplay:10.37,2013-02-02 18:15:00,
2013-02-02 12:45:00,25.0,18.8,30.06,NNW,340,10.0,20.0,77,0.00,OVC,OVC,0.10,WeatherDisplay:10.37,2013-02-02 18:45:00,
2013-02-02 13:15:00,23.0,16.9,30.06,NNW,340,10.0,20.0,77,0.00,OVC,OVC,0.10,WeatherDisplay:10.37,2013-02-02 19:15:00,
2013-02-02 13:45:00,23.0,16.9,30.06,NNW,340,10.0,20.0,77,0.00,OVC,OVC,0.10,WeatherDisplay:10.37,2013-02-02 19:45:00,
2013-02-02 14:15:00,21.0,14.9,30.08,NNW,330,8.0,20.0,77,0.00,-SN,-SN,0.10,WeatherDisplay:10.37,2013-02-02 20:15:00,
2013-02-02 14:45:00,21.0,13.7,30.09,NW,320,7.0,8.0,73,0.00,-SN,-SN,0.10,WeatherDisplay:10.37,2013-02-02 20:45:00,
2013-02-02 15:15:00,19.9,11.7,30.10,NW,310,12.0,12.0,70,0.00,OVC,OVC,0.10,WeatherDisplay:10.37,2013-02-02 21:15:00,
2013-02-02 15:45:00,19.9,11.7,30.10,NW,310,12.0,12.0,70,0.00,OVC,OVC,0.10,WeatherDisplay:10.37,2013-02-02 21:45:00,
2013-02-02 16:15:00,19.9,11.7,30.11,NW,310,9.0,12.0,70,0.00,OVC,OVC,0.10,WeatherDisplay:10.37,2013-02-02 22:15:00,
2013-02-02 16:45:00,19.9,11.7,30.11,NW,310,9.0,9.0,70,0.00,OVC,OVC,0.10,WeatherDisplay:10.37,2013-02-02 22:45:00,
2013-02-02 17:15:00,19.0,8.9,30.13,NW,320,6.0,9.0,64,0.00,OVC,OVC,0.10,WeatherDisplay:10.37,2013-02-02 23:15:00,
2013-02-02 17:45:00,19.0,8.9,30.13,NW,320,6.0,6.0,64,0.00,OVC,OVC,0.10,WeatherDisplay:10.37,2013-02-02 23:45:00,
2013-02-02 18:15:00,19.0,9.9,30.13,NW,310,5.0,6.0,67,0.00,OVC,OVC,0.10,WeatherDisplay:10.37,2013-02-03 00:15:00,
2013-02-02 18:45:00,19.0,9.9,30.13,NW,310,5.0,5.0,67,0.00,OVC,OVC,0.10,WeatherDisplay:10.37,2013-02-03 00:45:00,
2013-02-02 19:15:00,17.1,6.6,30.13,WNW,300,6.0,6.0,63,0.00,BKN,BKN,0.10,WeatherDisplay:10.37,2013-02-03 01:15:00,
2013-02-02 19:45:00,17.1,6.6,30.13,WNW,300,3.0,3.0,63,0.00,OVC,OVC,0.10,WeatherDisplay:10.37,2013-02-03 01:45:00,
2013-02-02 20:15:00,17.1,8.0,30.12,WNW,300,0.0,0.0,67,0.00,OVC,OVC,0.10,WeatherDisplay:10.37,2013-02-03 02:15:00,
2013-02-02 20:45:00,17.1,8.0,30.12,WNW,300,0.0,0.0,67,0.00,OVC,OVC,0.10,WeatherDisplay:10.37,2013-02-03 02:45:00,
2013-02-02 21:15:00,17.1,8.6,30.10,WNW,300,0.0,0.0,69,0.00,OVC,OVC,0.10,WeatherDisplay:10.37,2013-02-03 03:15:00,
2013-02-02 21:45:00,18.0,7.8,30.10,WNW,300,0.0,0.0,64,0.00,OVC,OVC,0.10,WeatherDisplay:10.37,2013-02-03 03:45:00,
2013-02-02 22:15:00,18.0,7.8,30.09,West,270,3.0,3.0,64,0.00,OVC,OVC,0.10,WeatherDisplay:10.37,2013-02-03 04:15:00,
2013-02-02 22:45:00,17.1,8.6,30.09,West,270,0.0,0.0,69,0.00,OVC,OVC,0.10,WeatherDisplay:10.37,2013-02-03 04:45:00,
2013-02-02 23:15:00,17.1,10.8,30.06,SSW,200,5.0,5.0,76,0.00,OVC,OVC,0.10,WeatherDisplay:10.37,2013-02-03 05:15:00,
2013-02-02 23:45:00,17.1,10.8,30.06,SSW,200,5.0,5.0,76,0.00,OVC,OVC,0.10,WeatherDisplay:10.37,2013-02-03 05:45:00,